| time (UTC) | temp F | wind direction | speed MPH | gust MPH | rain 1hr in | rain 24hr in | rain mn in | humidity % | barometer mb |
| 20260507020309 | 65 | 242 | 5.0 | 7.0 | 36.63 | 0.00 | 0.00 | 99 | 1002.7 |
| 20260507015306 | 65 | 255 | 6.0 | 7.0 | 36.63 | 0.00 | 0.00 | 99 | 1003.0 |
| 20260507014307 | 65 | 248 | 6.0 | 10.0 | 36.63 | 0.00 | 0.00 | 99 | 1003.0 |
| 20260507013303 | 65 | 256 | 5.0 | 7.0 | 36.63 | 0.00 | 0.00 | 99 | 1003.0 |
| 20260507012309 | 65 | 260 | 5.0 | 7.0 | 36.63 | 0.00 | 0.00 | 99 | 1002.9 |
| 20260507011309 | 65 | 267 | 4.0 | 6.0 | 36.63 | 0.00 | 0.00 | 99 | 1002.5 |
| 20260507010304 | 66 | 248 | 6.0 | 8.0 | 36.63 | 0.00 | 0.00 | 98 | 1002.7 |
| 20260507005305 | 66 | 255 | 6.0 | 10.0 | 36.63 | 0.00 | 0.00 | 98 | 1002.6 |
| 20260507003306 | 66 | 246 | 8.0 | 11.0 | 36.63 | 0.00 | 0.00 | 98 | 1002.5 |
| 20260507001306 | 66 | 229 | 8.0 | 10.0 | 36.63 | 0.00 | 0.00 | 98 | 1002.6 |
| 20260507000306 | 66 | 233 | 7.0 | 10.0 | 36.63 | 0.00 | 0.00 | 98 | 1002.2 |
| 20260506235306 | 66 | 252 | 7.0 | 10.0 | 36.63 | 0.00 | 0.00 | 98 | 1002.2 |
| 20260506234308 | 66 | 232 | 7.0 | 10.0 | 36.63 | 0.00 | 0.00 | 98 | 1002.0 |
| 20260506233302 | 66 | 238 | 7.0 | 10.0 | 36.63 | 0.00 | 0.00 | 98 | 1001.9 |
| 20260506232306 | 67 | 221 | 6.0 | 9.0 | 36.63 | 0.00 | 0.00 | 98 | 1001.8 |
| 20260506231302 | 67 | 260 | 8.0 | 11.0 | 36.63 | 0.00 | 0.00 | 98 | 1002.0 |
| 20260506230303 | 67 | 250 | 9.0 | 13.0 | 36.63 | 0.00 | 0.00 | 98 | 1002.0 |
| 20260506225305 | 67 | 266 | 10.0 | 15.0 | 36.63 | 0.00 | 0.00 | 98 | 1002.1 |
| 20260506224303 | 67 | 239 | 12.0 | 16.0 | 36.63 | 0.00 | 0.00 | 97 | 1002.0 |
| 20260506223304 | 67 | 257 | 11.0 | 17.0 | 36.63 | 0.00 | 0.00 | 97 | 1001.9 |
| 20260506222305 | 67 | 255 | 11.0 | 16.0 | 36.63 | 0.00 | 0.00 | 97 | 1001.9 |
| 20260506221303 | 67 | 245 | 12.0 | 17.0 | 36.63 | 0.00 | 0.00 | 97 | 1002.0 |
| 20260506220308 | 67 | 232 | 11.0 | 16.0 | 36.63 | 0.00 | 0.00 | 97 | 1001.9 |
| 20260506215306 | 67 | 249 | 13.0 | 17.0 | 36.63 | 0.00 | 0.00 | 97 | 1002.1 |
| 20260506214304 | 68 | 253 | 9.0 | 13.0 | 36.63 | 0.00 | 0.00 | 97 | 1001.8 |
| 20260506213303 | 67 | 232 | 10.0 | 15.0 | 36.63 | 0.00 | 0.00 | 97 | 1001.7 |
| 20260506212307 | 67 | 249 | 14.0 | 19.0 | 36.63 | 0.00 | 0.00 | 97 | 1001.8 |
| 20260506211302 | 67 | 264 | 11.0 | 17.0 | 36.63 | 0.00 | 0.00 | 97 | 1001.7 |
| 20260506210303 | 67 | 236 | 13.0 | 20.0 | 36.63 | 0.00 | 0.00 | 97 | 1001.8 |
| 20260506205306 | 67 | 270 | 15.0 | 22.0 | 36.63 | 0.00 | 0.00 | 97 | 1001.8 |
| 20260506204307 | 67 | 243 | 14.0 | 19.0 | 36.63 | 0.00 | 0.00 | 97 | 1001.7 |
| 20260506203303 | 67 | 239 | 14.0 | 20.0 | 36.63 | 0.00 | 0.00 | 97 | 1001.6 |
| 20260506202307 | 67 | 269 | 14.0 | 21.0 | 36.63 | 0.00 | 0.00 | 97 | 1001.5 |
| 20260506201301 | 67 | 240 | 12.0 | 18.0 | 36.63 | 0.00 | 0.00 | 97 | 1001.7 |
| 20260506200304 | 67 | 242 | 15.0 | 23.0 | 36.63 | 0.00 | 0.00 | 97 | 1001.8 |
| 20260506195305 | 66 | 273 | 15.0 | 23.0 | 36.63 | 0.00 | 0.00 | 97 | 1001.7 |
| 20260506194313 | 66 | 240 | 16.0 | 22.0 | 36.63 | 0.00 | 0.00 | 97 | 1001.8 |
| 20260506193305 | 66 | 253 | 17.0 | 26.0 | 36.63 | 0.00 | 0.00 | 97 | 1002.1 |
| 20260506192310 | 65 | 249 | 16.0 | 24.0 | 36.63 | 0.00 | 0.00 | 97 | 1002.1 |
| 20260506191305 | 65 | 249 | 15.0 | 22.0 | 36.63 | 0.00 | 0.00 | 98 | 1002.4 |
| 20260506190304 | 65 | 270 | 17.0 | 28.0 | 36.63 | 0.00 | 0.00 | 98 | 1002.3 |
| 20260506185306 | 65 | 263 | 17.0 | 26.0 | 36.63 | 0.00 | 0.00 | 98 | 1002.4 |
| 20260506184303 | 64 | 224 | 15.0 | 23.0 | 36.63 | 0.00 | 0.00 | 98 | 1002.5 |
| 20260506183302 | 64 | 266 | 14.0 | 22.0 | 36.63 | 0.00 | 0.00 | 98 | 1002.7 |
| 20260506182301 | 64 | 231 | 18.0 | 28.0 | 36.63 | 0.00 | 0.00 | 98 | 1002.7 |
| 20260506181302 | 64 | 248 | 19.0 | 30.0 | 36.63 | 0.00 | 0.00 | 98 | 1002.6 |
| 20260506180311 | 64 | 245 | 14.0 | 20.0 | 36.63 | 0.00 | 0.00 | 98 | 1002.8 |
| 20260506175301 | 64 | 248 | 17.0 | 29.0 | 36.63 | 0.00 | 0.00 | 98 | 1003.0 |
| 20260506174304 | 64 | 238 | 16.0 | 23.0 | 36.63 | 0.00 | 0.00 | 98 | 1002.9 |
| 20260506173304 | 64 | 236 | 16.0 | 22.0 | 36.63 | 0.00 | 0.00 | 98 | 1002.9 |
| 20260506172307 | 64 | 226 | 17.0 | 30.0 | 36.63 | 0.00 | 0.00 | 98 | 1002.9 |
| 20260506171303 | 64 | 248 | 13.0 | 21.0 | 36.63 | 0.00 | 0.00 | 99 | 1003.1 |
| 20260506170303 | 63 | 238 | 11.0 | 17.0 | 36.63 | 0.00 | 0.00 | 99 | 1003.1 |
| 20260506165308 | 63 | 246 | 12.0 | 18.0 | 36.63 | 0.00 | 0.00 | 99 | 1003.0 |
| 20260506164304 | 63 | 232 | 10.0 | 16.0 | 36.63 | 0.00 | 0.00 | 100 | 1003.1 |
| 20260506163304 | 62 | 225 | 10.0 | 18.0 | 36.63 | 0.00 | 0.00 | 100 | 1003.3 |
| 20260506162306 | 62 | 243 | 10.0 | 17.0 | 36.63 | 0.00 | 0.00 | 100 | 1003.6 |
| 20260506161301 | 62 | 231 | 10.0 | 13.0 | 36.63 | 0.00 | 0.00 | 100 | 1003.6 |
| 20260506160311 | 62 | 158 | 11.0 | 19.0 | 36.63 | 0.00 | 0.00 | 100 | 1003.5 |
| 20260506155305 | 62 | 224 | 11.0 | 17.0 | 36.63 | 0.00 | 0.00 | 100 | 1004.0 |
| 20260506154303 | 63 | 249 | 11.0 | 20.0 | 36.63 | 0.00 | 0.00 | 100 | 1004.3 |
| 20260506153304 | 63 | 235 | 13.0 | 20.0 | 36.63 | 0.00 | 0.00 | 99 | 1004.4 |
| 20260506152305 | 64 | 231 | 13.0 | 19.0 | 36.63 | 0.00 | 0.00 | 98 | 1004.2 |
| 20260506151310 | 64 | 226 | 13.0 | 21.0 | 36.63 | 0.00 | 0.00 | 98 | 1004.3 |
| 20260506150304 | 64 | 239 | 14.0 | 24.0 | 36.63 | 0.00 | 0.00 | 97 | 1004.2 |
| 20260506145305 | 65 | 233 | 16.0 | 26.0 | 36.63 | 0.00 | 0.00 | 96 | 1004.3 |
| 20260506144303 | 65 | 232 | 15.0 | 25.0 | 36.63 | 0.00 | 0.00 | 94 | 1004.2 |
| 20260506143304 | 66 | 240 | 16.0 | 25.0 | 36.63 | 0.00 | 0.00 | 93 | 1004.3 |
| 20260506142306 | 66 | 229 | 17.0 | 27.0 | 36.63 | 0.00 | 0.00 | 92 | 1004.4 |
| 20260506141301 | 66 | 233 | 15.0 | 26.0 | 36.63 | 0.00 | 0.00 | 92 | 1004.4 |
| 20260506140306 | 66 | 246 | 13.0 | 20.0 | 36.63 | 0.00 | 0.00 | 91 | 1004.3 |
| 20260506135307 | 67 | 243 | 13.0 | 19.0 | 36.63 | 0.00 | 0.00 | 90 | 1004.3 |
| 20260506134308 | 67 | 242 | 18.0 | 35.0 | 36.63 | 0.00 | 0.00 | 89 | 1004.2 |
| 20260506133302 | 67 | 243 | 16.0 | 23.0 | 36.63 | 0.00 | 0.00 | 89 | 1004.0 |
| 20260506132307 | 66 | 224 | 16.0 | 23.0 | 36.63 | 0.00 | 0.00 | 90 | 1004.0 |
| 20260506131301 | 66 | 238 | 16.0 | 25.0 | 36.63 | 0.00 | 0.00 | 90 | 1004.1 |
| 20260506130312 | 66 | 222 | 17.0 | 25.0 | 36.63 | 0.00 | 0.00 | 90 | 1004.1 |
| 20260506125305 | 66 | 235 | 17.0 | 27.0 | 36.63 | 0.00 | 0.00 | 90 | 1004.2 |
| 20260506123303 | 66 | 243 | 16.0 | 23.0 | 36.63 | 0.00 | 0.00 | 91 | 1004.3 |
| 20260506122309 | 65 | 238 | 16.0 | 25.0 | 36.63 | 0.00 | 0.00 | 92 | 1004.3 |
| 20260506121302 | 65 | 226 | 15.0 | 23.0 | 36.63 | 0.00 | 0.00 | 93 | 1004.3 |
| 20260506120304 | 65 | 233 | 14.0 | 23.0 | 36.63 | 0.00 | 0.00 | 94 | 1004.2 |
| 20260506115307 | 65 | 233 | 16.0 | 25.0 | 36.63 | 0.00 | 0.00 | 94 | 1004.3 |
| 20260506114312 | 65 | 238 | 14.0 | 22.0 | 36.63 | 0.00 | 0.00 | 95 | 1004.2 |
| 20260506113305 | 64 | 231 | 13.0 | 22.0 | 36.63 | 0.00 | 0.00 | 96 | 1004.0 |
| 20260506112306 | 64 | 225 | 12.0 | 22.0 | 36.63 | 0.00 | 0.00 | 96 | 1004.1 |
| 20260506111302 | 64 | 242 | 11.0 | 20.0 | 36.63 | 0.00 | 0.00 | 96 | 1004.1 |
| 20260506110306 | 64 | 232 | 12.0 | 21.0 | 36.63 | 0.00 | 0.00 | 96 | 1004.0 |
| 20260506105304 | 64 | 212 | 11.0 | 17.0 | 36.63 | 0.00 | 0.00 | 96 | 1004.1 |
| 20260506104304 | 64 | 217 | 12.0 | 16.0 | 36.63 | 0.00 | 0.00 | 96 | 1003.9 |
| 20260506103303 | 64 | 243 | 12.0 | 17.0 | 36.63 | 0.00 | 0.00 | 96 | 1004.0 |
| 20260506102305 | 64 | 228 | 12.0 | 19.0 | 36.63 | 0.00 | 0.00 | 96 | 1004.1 |
| 20260506101301 | 64 | 224 | 12.0 | 23.0 | 36.63 | 0.00 | 0.00 | 96 | 1004.2 |
| 20260506100303 | 64 | 242 | 12.0 | 18.0 | 36.63 | 0.00 | 0.00 | 97 | 1004.0 |
| 20260506095305 | 64 | 224 | 12.0 | 18.0 | 36.63 | 0.00 | 0.00 | 97 | 1004.0 |
| 20260506094307 | 64 | 232 | 10.0 | 14.0 | 36.63 | 0.00 | 0.00 | 97 | 1003.9 |
| 20260506093303 | 64 | 214 | 10.0 | 15.0 | 36.63 | 0.00 | 0.00 | 97 | 1004.0 |
| 20260506092306 | 64 | 243 | 10.0 | 17.0 | 36.63 | 0.00 | 0.00 | 97 | 1004.0 |
| 20260506091303 | 64 | 239 | 9.0 | 15.0 | 36.63 | 0.00 | 0.00 | 96 | 1004.0 |
| 20260506090306 | 64 | 232 | 9.0 | 17.0 | 36.63 | 0.00 | 0.00 | 96 | 1004.0 |
| 20260506085305 | 64 | 231 | 8.0 | 13.0 | 36.63 | 0.00 | 0.00 | 96 | 1003.9 |
| 20260506084305 | 64 | 229 | 10.0 | 15.0 | 36.63 | 0.00 | 0.00 | 96 | 1003.9 |
| 20260506083303 | 65 | 221 | 11.0 | 17.0 | 36.63 | 0.00 | 0.00 | 96 | 1003.8 |
| 20260506082305 | 65 | 250 | 12.0 | 19.0 | 36.63 | 0.00 | 0.00 | 96 | 1003.8 |
| 20260506081301 | 65 | 245 | 10.0 | 14.0 | 36.63 | 0.00 | 0.00 | 96 | 1003.9 |
| 20260506080305 | 65 | 218 | 11.0 | 17.0 | 36.63 | 0.00 | 0.00 | 96 | 1004.0 |
| 20260506073304 | 65 | 249 | 12.0 | 19.0 | 36.63 | 0.00 | 0.00 | 95 | 1004.0 |
| 20260506072302 | 66 | 240 | 13.0 | 19.0 | 36.63 | 0.00 | 0.00 | 95 | 1004.1 |
| 20260506071301 | 66 | 246 | 13.0 | 19.0 | 36.63 | 0.00 | 0.00 | 94 | 1004.0 |
| 20260506070303 | 67 | 229 | 12.0 | 19.0 | 36.63 | 0.00 | 0.00 | 94 | 1004.0 |
| 20260506062301 | 68 | 256 | 13.0 | 20.0 | 36.63 | 0.00 | 0.00 | 92 | 1004.1 |
| 20260506061303 | 68 | 215 | 12.0 | 18.0 | 36.63 | 0.00 | 0.00 | 92 | 1004.2 |
| 20260506060309 | 68 | 217 | 12.0 | 19.0 | 36.63 | 0.00 | 0.00 | 92 | 1004.2 |
| 20260506051302 | 67 | 214 | 9.0 | 19.0 | 36.63 | 0.00 | 0.00 | 93 | 1004.5 |
| 20260506050304 | 67 | 229 | 11.0 | 20.0 | 36.63 | 0.00 | 0.00 | 92 | 1004.5 |
| 20260506044304 | 67 | 235 | 10.0 | 15.0 | 36.63 | 0.00 | 0.00 | 92 | 1004.6 |
| 20260506043308 | 67 | 249 | 9.0 | 14.0 | 36.63 | 0.00 | 0.00 | 90 | 1004.6 |
| 20260506042305 | 68 | 218 | 11.0 | 16.0 | 36.63 | 0.00 | 0.00 | 89 | 1004.6 |
| 20260506041302 | 68 | 229 | 10.0 | 16.0 | 36.63 | 0.00 | 0.00 | 88 | 1004.6 |
| 20260506040303 | 68 | 235 | 9.0 | 17.0 | 36.63 | 0.00 | 0.00 | 87 | 1004.5 |
| 20260506034308 | 69 | 231 | 10.0 | 18.0 | 36.63 | 0.00 | 0.00 | 84 | 1004.4 |
| 20260506033303 | 70 | 205 | 11.0 | 16.0 | 36.63 | 0.00 | 0.00 | 83 | 1004.4 |
| 20260506032308 | 70 | 225 | 11.0 | 19.0 | 36.63 | 0.00 | 0.00 | 82 | 1004.4 |
| 20260506031302 | 70 | 229 | 9.0 | 14.0 | 36.63 | 0.00 | 0.00 | 82 | 1004.4 |
| 20260506030303 | 70 | 226 | 9.0 | 15.0 | 36.63 | 0.00 | 0.00 | 81 | 1004.4 |
| 20260506025305 | 70 | 207 | 10.0 | 15.0 | 36.63 | 0.00 | 0.00 | 81 | 1004.4 |
| 20260506024303 | 70 | 229 | 10.0 | 15.0 | 36.63 | 0.00 | 0.00 | 81 | 1004.5 |
| 20260506023304 | 70 | 222 | 9.0 | 15.0 | 36.63 | 0.00 | 0.00 | 81 | 1004.6 |
| 20260506022309 | 70 | 240 | 10.0 | 16.0 | 36.63 | 0.00 | 0.00 | 81 | 1004.6 |
| 20260506021302 | 70 | 233 | 10.0 | 15.0 | 36.63 | 0.00 | 0.00 | 80 | 1004.5 |